sat.trackr.live / text

‹ back to catalog

STARLINK-35922

NORAD 66502 · 2025-263T

PAYLOAD ACTIVE UNKNOWN

§ Identity

Operator
Country
US
Launch date
2025-11-15
Launch site
AFETR
Launch vehicle
Mass (kg)
RCS (m²)

Purposes: comms

External: N2YO · Heavens-Above · Gunter

§ Orbital elements

Epoch: 2026-09-20T06:25:12.962496Z

Period
94.27 min
Inclination
43.0024°
Eccentricity
0.0001525
Mean motion
15.27587888 rev/d
Perigee alt
482.0 km
Apogee alt
484.1 km
Semi-major
6,861.2 km
B*
3.8048e-4
RAAN
332.1150°
Arg perigee
262.7886°
Mean anomaly
97.2793°
Rev number
4,865

§ Raw data

STARLINK-359221 66502U 25263T   26263.26751114  .00010225  00000+0  38048-3 0  99982 66502  43.0024 332.1150 0001525 262.7886  97.2793 15.27587888 48650

JSON: /api/v1/satellites/66502 · /tle

For live sub-satellite position, see the globe view (requires WebGL).

§ Visibility from observer

Set your observer location to see the next 7 days of passes ≥ 10°. The values pass through the URL so the page stays shareable.

No JS? Fill the form by hand. The geolocation button needs JavaScript.